Location: Casilda
(33.0440°S, 61.1680°W)
Time: 10:36:49
(UTC-03:00)

ISS - Pass Details

Date: 23 September 2023
Orbit: 413 x 421 km, 51.6° (Epoch: 26 September)

Event Time Altitude Azimuth Distance (km) Brightness Sun altitude
Exits shadow 05:40:47 18° 221° (SW) 1,142 -1.9 -15.9°
Maximum altitude 05:41:07 18° 213° (SSW) 1,134 -1.8 -15.8°
Drops below altitude 10° 05:43:34 10° 168° (SSE) 1,533 -0.6 -15.3°
Sets 05:46:11 0° 148° (SSE) 2,405 0.8 -14.8°
